Zurück zum Katalog

STARLINK-36345

AktivKommunikationVLEO
NORAD 68243·PAYLOAD·🇺🇸 United States

Gestartet Mar 17, 2026 von Vandenberg Space Force Base

Loading…

Nächste Überflüge (nächste 24 Stunden)

TLE

AktuellSource: CelesTrak SupGP

Epoche: Sep 14, 2026, 21:10 UTC

1 68243C 26054M   26257.88243056 -.00097136  00000+0 -28692-2 0  2571
2 68243  53.1575 127.8346 0001306  89.1606 197.4371 15.34447292    16

Verfolge STARLINK-36345 in Echtzeit mit AllMySat

Download on the App Store